Regional Weather Roundup
Issued by NWS Newport/Morehead, NC

Current Version | Previous Version | Text Only | Print | Product List | Glossary Off
Versions: 1 2 3 4 5 6 7 8 9 10 11 12 13 14 15 16 17 18 19 20 21 22 23 24 25 26 27 28 29 30 31 32 33 34 35 36 37 38 39 40 41 42 43 44 45 46 47 48 49 50
000 ASUS42 KMHX 210513 RWRMHX WEATHER ROUNDUP FOR EASTERN NORTH CAROLINA NATIONAL WEATHER SERVICE NEWPORT/MOREHEAD CITY NC 1200 AM EST TUE FEB 21 2017 NOTE: "FAIR" INDICATES FEW OR NO CLOUDS BELOW 12,000 FEET WITH NO SIGNIFICANT WEATHER AND/OR OBSTRUCTIONS TO VISIBILITY NCZ015>017-031-032-045>047-102-103-210600- NORTH COAST CITY SKY/WX TMP DP RH WIND PRES REMARKS EDENTON PTCLDY 47 41 78 CALM 30.27S ELIZABETH CITY CLOUDY 45 38 76 NE6 30.28R KITTY HAWK NOT AVBL MANTEO CLOUDY 47 45 90 E8 30.26R $$ NCZ045>047-081-094-103-104-210600- CENTRAL COAST CITY SKY/WX TMP DP RH WIND PRES REMARKS FRISCO CLEAR 54 45 71 NE7 30.24R $$ NCZ095-097-098-100-101-210600- SOUTHERN COAST CITY SKY/WX TMP DP RH WIND PRES REMARKS BEAUFORT PTCLDY 50 42 74 NE5 30.24R CEDAR ISLAND NOT AVBL JACKSONVILLE NOT AVBL PINEY ISLAND CLOUDY N/A N/A N/A NE8 30.24R WILMINGTON MOCLDY 55 49 80 E6 30.21S $$ NCZ011>013-027>030-043-044-078>080-089-090>093-098-210600- COASTAL PLAIN CITY SKY/WX TMP DP RH WIND PRES REMARKS AHOSKIE N/A 46 38 76 CALM 30.28R CLINTON CLOUDY 54 46 75 CALM 30.23S ELIZABETHTOWN CLOUDY 55 45 69 SE3 30.22S GOLDSBORO CLOUDY 50 43 78 E3 30.22S GREENVILLE CLOUDY 46 37 71 E6 30.26R HAVELOCK PTCLDY 50 41 71 E5 30.26R KENANSVILLE NOT AVBL KINSTON PTCLDY 50 41 70 CALM 30.25F NEW BERN CLOUDY 49 43 80 E5 30.27R RICHLANDS CLOUDY 45 41 86 NE3 30.24S ROCKY MOUNT CLOUDY 52 41 66 VRB3 30.25S WASHINGTON CLOUDY 46 37 70 E3 30.27R WHITEVILLE MOCLDY 56 47 70 E5 30.21S $$ AMZ130-135-150-152-154-156-158-170-250-252-270-ANZ085-086-088-633-658-670-210600- MARINE OBSERVATIONS STATION/POSITION TIME TEMP WIND PRES WAVE SWELL AIR SEA DIR/SP/G HT/PER HT/PER (UTC) (F) (DEG/KT/KT) (MB) (FT/S) (FT/S) CHESAPEAKE LIGHT NOT AVBL 64 E VA BEACH 0450 53 53 60/ 16/ 19 1024.3 3/ 5 2/ 8 DUCK 0436 49 49 50/ 9/ 10 1024.2 2 E DUCK 0500 49 N/A 2/ 5 OREGON INLET 0448 30/ 8/ 11 N/A 13E OREGON INLT NOT AVBL HATTERAS CG 0436 55 57 40/ 7/ 10 1023.4 DIAMOND BUOY 0450 60 76 50/ 19/ 23 1023.1 6/ 8 CAPE LOOKOUT 0500 58 40/ 15/ 17 1023.3 BEAUFORT LAB 0436 52 54 40/ 4/ 8 1022.8 30 SE NEW RVR IN 0408 62 70/ 16/ 21 1022.9 30 SE NEW RVR IN 0443 66 N/A 4/ 4 27 SE WRIGHTSVLE 0408 63 62 80/ 12/ 17 1022.0 5 SE WRIGHTSVLE 0408 57 56 70/ 8/ 14 1022.8 225 S CAPE HAT 0450 69 71 30/ 16/ 19 1020.2 4/ 6 2/14 41 SE CHARLESTON 0450 67 66 100/ 8/ 10 1021.1 2/ 5 2/ 5 $$

USA.gov is the U.S. government's official web portal to all federal, state and local government web resources and services.